INTELSAT 602 (IS-602) 1 20315U 89087A 12034.53443472 .00000030 00000-0 10000-3 0 4201 2 20315 9.0869 54.1402 0000948 251.9040 197.2824 1.00272234 79362 INTELSAT 603 (IS-603) 1 20523U 90021A 12032.85194698 .00000071 00000-0 10000-3 0 9837 2 20523 8.5847 55.6945 0000958 305.0063 88.9305 1.00274207 73106 SBS-6 1 20872U 90091A 12032.83976104 -.00000192 00000-0 10000-3 0 4592 2 20872 4.0952 68.4614 0006717 344.0375 15.9954 0.98994994 66283 INTELSAT 605 (IS-605) 1 21653U 91055A 12033.82479895 -.00000192 00000-0 10000-3 0 2011 2 21653 6.7088 61.4345 0001580 274.9284 85.1280 0.99328682 74845 INTELSAT 601 (IS-601) 1 21765U 91075A 12034.37460685 -.00000282 00000-0 10000-3 0 3005 2 21765 6.6921 60.1974 0003868 256.3275 103.7109 0.99596011 74056 INTELSAT 701 (IS-701) 1 22871U 93066A 12034.54103664 -.00000136 00000-0 10000-3 0 8447 2 22871 0.1820 79.6532 0002608 228.8264 176.3765 1.00271283 66846 INTELSAT 702 (IS-702) 1 23124U 94034A 12033.69648962 .00000129 00000-0 00000-0 0 6686 2 23124 0.5318 80.0019 0002486 215.5922 134.9112 1.00272295 78751 INTELSAT 2 (IS-2) 1 23175U 94040A 12034.44805366 -.00000299 00000-0 00000+0 0 442 2 23175 2.8305 75.4998 0008515 278.4094 81.5306 0.99196304 63635 INTELSAT 704 (IS-704) 1 23461U 95001A 12033.37263850 -.00000233 00000-0 10000-3 0 3991 2 23461 2.4444 71.4158 0003057 304.0511 55.9659 0.99184755 62422 INTELSAT 705 (IS-705) 1 23528U 95013A 12033.75722430 -.00000026 00000-0 00000+0 0 3573 2 23528 2.0156 72.5216 0017231 325.2018 34.7282 0.98973978 61669 INTELSAT 706 (IS-706) 1 23571U 95023A 12033.90579451 -.00000055 00000-0 10000-3 0 4480 2 23571 0.4663 78.7060 0003298 244.4579 207.3864 1.00272143 61203 INTELSAT 3R (IS-3R) 1 23764U 96002A 12033.51288957 -.00000184 00000-0 10000-3 0 1768 2 23764 2.1969 71.4210 0010568 165.9701 194.1042 0.99086753 58792 PAKSAT 1 (ANATOLIA 1) 1 23779U 96006A 12034.04041164 -.00000221 00000-0 00000+0 0 7138 2 23779 0.2162 82.9185 0003884 3.4085 41.7622 0.99598583 58569 INTELSAT 707 (IS-707) 1 23816U 96015A 12034.06123705 -.00000282 00000-0 10000-3 0 3435 2 23816 0.0244 319.2125 0002998 5.0092 137.4445 1.00270298 58212 GALAXY 9 (G-9) 1 23877U 96033A 12033.50919735 -.00000266 00000-0 10000-3 0 5081 2 23877 3.1082 70.0039 0008734 14.2134 345.8666 0.99539895 57455 INTELSAT 709 (IS-709) 1 23915U 96035A 12033.89806398 -.00000055 00000-0 10000-3 0 4791 2 23915 0.0129 256.0947 0001082 70.6770 201.0846 1.00272308 57292 INTELSAT 26 (IS-26) 1 24732U 97007A 12033.88050600 .00000112 00000-0 10000-3 0 1234 2 24732 3.8005 67.9462 0003368 252.3768 179.3843 1.00272453 54708 INTELSAT 801 (IS-801) 1 24742U 97009A 12031.95229382 -.00000212 00000-0 10000-3 0 633 2 24742 3.0211 70.5570 0001705 253.0449 120.2760 1.00273826 54693 GALAXY 25 (G-25) 1 24812U 97026A 12034.21671530 -.00000159 00000-0 10000-3 0 3945 2 24812 0.0189 118.1661 0002806 200.9974 158.5371 1.00271695 53849 INTELSAT 802 (IS-802) 1 24846U 97031A 12033.26360956 -.00000157 00000-0 10000-3 0 3374 2 24846 1.0006 73.2843 0026507 175.6440 110.7673 0.98110023 53442 INTELSAT 5 (IS-5) 1 24916U 97046A 12034.47626682 -.00000028 00000-0 10000-3 0 2649 2 24916 0.0137 329.6789 0002811 336.4985 167.3036 1.00271656 53012 INTELSAT 805 (IS-805) 1 25371U 98037A 12033.33224074 -.00000282 00000-0 10000-3 0 8355 2 25371 0.0027 7.2662 0003034 313.9192 234.8388 1.00272619 49939 INTELSAT 7 (IS-7) 1 25473U 98052A 12032.65818817 -.00000022 00000-0 10000-3 0 3192 2 25473 0.0141 82.8001 0002651 228.8837 125.1663 1.00272738 49018 INTELSAT 8 (IS-8) 1 25522U 98065A 12034.61434519 -.00000054 00000-0 10000-3 0 1162 2 25522 0.0430 257.3363 0002647 30.0724 232.9231 1.00272459 48609 GALAXY 26 (G-26) 1 25626U 99005A 12033.79947399 .00000118 00000-0 10000-3 0 9488 2 25626 0.0228 86.5374 0002423 218.3102 165.3466 1.00274896 47511 INSAT-2E (APR-1) 1 25666U 99016A 12033.69105586 -.00000163 00000-0 10000-3 0 8016 2 25666 0.2723 78.2592 0002772 241.3839 144.4843 1.00272931 47129 GALAXY 27 (G-27) 1 25922U 99052A 12033.80401262 .00000140 00000-0 10000-3 0 9750 2 25922 0.0030 33.8823 0000581 341.9179 91.1131 1.00274064 45267 GALAXY 11 (G-11) 1 26038U 99071A 12034.18730462 -.00000283 00000-0 10000-3 0 2571 2 26038 0.0380 258.0744 0000463 114.9546 131.5997 1.00270020 44482 GALAXY 4R (G-4R) 1 26298U 00020A 12034.52566803 -.00000244 00000-0 10000-3 0 1115 2 26298 4.9685 65.0433 0000601 21.4645 338.6180 0.99830973 43274 INTELSAT 9 (IS-9) 1 26451U 00043A 12034.08403550 -.00000282 00000-0 10000-3 0 7108 2 26451 0.0060 243.9066 0001921 96.0161 124.9474 1.00269466 42227 INTELSAT 12 (IS-12) 1 26590U 00068A 12033.80401529 .00000140 00000-0 10000-3 0 7597 2 26590 0.0143 82.9743 0005538 177.1904 206.6859 1.00273580 41282 INTELSAT 1R (IS-1R) 1 26608U 00072A 12032.18298160 -.00000278 00000-0 10000-3 0 4452 2 26608 0.0172 227.5406 0000710 89.2035 189.8858 1.00272185 41115 INTELSAT 10 (IS-10) 1 26766U 01019A 12032.65818787 -.00000021 00000-0 10000-3 0 9332 2 26766 0.0241 112.0680 0000664 113.8050 210.7963 1.00272547 39297 INTELSAT 901 (IS-901) 1 26824U 01024A 12033.04434422 -.00000137 00000-0 10000-3 0 8435 2 26824 0.0139 77.2707 0002603 228.9972 183.3260 1.00273152 39047 INTELSAT 902 (IS-902) 1 26900U 01039A 12034.04237074 .00000036 00000-0 00000+0 0 8501 2 26900 0.0152 51.0156 0003239 259.8290 259.0098 1.00273341 38226 INTELSAT 904 (IS-904) 1 27380U 02007A 12034.04232501 .00000052 00000-0 00000+0 0 9004 2 27380 0.0192 43.0315 0003012 258.2207 266.5878 1.00272436 36479 INTELSAT 903 (IS-903) 1 27403U 02016A 12031.05128064 -.00000235 00000-0 10000-3 0 6282 2 27403 0.0715 112.4342 0003286 207.1694 154.0066 1.00272517 36103 INTELSAT 905 (IS-905) 1 27438U 02027A 12032.04775979 -.00000181 00000-0 10000-3 0 4553 2 27438 0.0034 301.1438 0002321 6.9305 175.2544 1.00271038 35439 GALAXY 3C (G-3C) 1 27445U 02030A 12034.07601631 -.00000148 00000-0 10000-3 0 5186 2 27445 0.0148 196.3710 0000365 24.0409 204.5260 1.00271934 35337 INTELSAT 906 (IS-906) 1 27513U 02041A 12032.66404176 .00000018 00000-0 00000+0 0 6442 2 27513 0.0328 56.2667 0003217 256.6096 121.5749 1.00273492 34499 INTELSAT 907 (IS-907) 1 27683U 03007A 12034.04019058 -.00000199 00000-0 10000-3 0 1999 2 27683 0.0074 27.7995 0003291 279.1281 172.6410 1.00271414 32863 GALAXY 12 (G-12) 1 27715U 03013B 12033.43336512 .00000062 00000-0 10000-3 0 5173 2 27715 0.0464 231.5630 0002239 98.0911 189.3640 1.00273241 32378 GALAXY 23 (G-23) 1 27854U 03034A 12034.44795743 .00000016 00000-0 00000+0 0 4552 2 27854 0.0085 28.6997 0003140 280.5000 224.0730 1.00271783 31141 GALAXY 13 (HORIZONS-1) 1 27954U 03044A 12034.20011860 .00000051 00000-0 10000-3 0 3350 2 27954 0.0091 89.1047 0000245 47.8664 300.8468 1.00274242 30626 INTELSAT 10-02 1 28358U 04022A 12033.83810002 -.00000008 00000-0 10000-3 0 2317 2 28358 0.0210 129.8794 0000774 137.6863 165.5939 1.00272957 28004 GALAXY 28 (G-28) 1 28702U 05022A 12034.42878161 -.00000182 00000-0 10000-3 0 2185 2 28702 0.0329 77.9400 0001793 80.3043 40.0767 1.00271106 24277 GALAXY 14 (G-14) 1 28790U 05030A 12034.46931738 .00000039 00000-0 10000-3 0 2567 2 28790 0.0275 287.9225 0002714 16.5372 232.5060 1.00272272 23696 GALAXY 15 (G-15) 1 28884U 05041A 12033.11425723 .00000082 00000-0 10000-3 0 2845 2 28884 0.0149 43.2263 0002540 260.4548 96.1477 1.00273558 23118 GALAXY 16 (G-16) 1 29236U 06023A 12033.24064803 -.00000123 00000-0 10000-3 0 1262 2 29236 0.0002 132.8751 0002425 176.5357 170.0447 1.00272085 20639 GALAXY 17 (G-17) 1 31307U 07016B 12034.11683596 -.00000171 00000-0 10000-3 0 8305 2 31307 0.0164 39.1979 0002975 280.7180 123.8108 1.00270925 17450 INTELSAT 11 (IS-11) 1 32253U 07044B 12034.24473749 -.00000266 00000-0 10000-3 0 6491 2 32253 0.0147 151.6463 0004116 136.0452 250.2440 1.00272044 15900 HORIZONS-2 1 32388U 07063B 12033.74455566 -.00000178 00000-0 10000-3 0 7024 2 32388 0.0096 29.5449 0002650 273.0104 182.6467 1.00266916 15252 GALAXY 18 (G-18) 1 32951U 08024A 12033.31307319 .00000029 00000-0 10000-3 0 5834 2 32951 0.0278 203.6703 0002712 111.1272 166.7879 1.00272256 13583 INTELSAT 25 (IS-25) 1 33153U 08034A 12033.98087434 -.00000221 00000-0 10000-3 0 6382 2 33153 0.0336 285.1187 0001970 31.0549 138.0115 1.00271720 13126 INTELSAT 14 (IS-14) 1 36097U 09064A 12034.24430907 -.00000271 00000-0 00000+0 0 3548 2 36097 0.0185 28.0359 0003784 190.2601 317.4844 1.00270048 8088 INTELSAT 15 (IS-15) 1 36106U 09067A 12033.74455546 -.00000182 00000-0 10000-3 0 4796 2 36106 0.0096 37.0833 0002588 264.8543 183.5654 1.00271776 7978 INTELSAT 16 (IS-16) 1 36397U 10006A 12033.31565497 -.00000281 00000-0 10000-3 0 3736 2 36397 0.0302 289.6465 0002013 43.0030 214.7593 1.00270431 7210